Hot Springs, VA

9:07 AM EST on January 24, 2017 (GMT -0500)
Ingalls

Weather History for KHSP - January, 2014

Change the Weather History Date:

Thursday, January 16, 2014

  Actual Average Record
Temperature  
Mean Temperature 19 °F -  
Max Temperature 26 °F 30 °F 51 °F (2007)
Min Temperature 12 °F 16 °F -5 °F (2009)
Degree Days  
Heating Degree Days 46    
Moisture  
Dew Point 12 °F    
Average Humidity 74    
Maximum Humidity 93    
Minimum Humidity 54    
Precipitation  
Precipitation 0.00 in - - ()
Sea Level Pressure  
Sea Level Pressure 29.83 in    
Wind  
Wind Speed 13 mph (WSW)    
Max Wind Speed 18 mph    
Max Gust Speed 23 mph    
Visibility 10 miles    
Events Snow    
Averages and records for this station are not official NWS values.
T = Trace of Precipitation, MM = Missing Value Source: NWS Daily Summary

Daily Weather History Graph

Daily Weather History Graph

Search for Another Location

Airport or City:

Trip Planner

Search our weather history database for the weather conditions in past years. The results will help you decide how hot, cold, wet, or windy it might be!

Date:

Astronomy

Jan. 16, 2014 Rise Set
Actual Time 7:33 AM EST 5:24 PM EST
Civil Twilight 7:04 AM EST 5:53 PM EST
Nautical Twilight 6:32 AM EST 6:25 PM EST
Astronomical Twilight 6:01 AM EST 6:57 PM EST
Moon 6:13 PM EST (1/16) 7:27 AM EST (1/16)
Length of Visible Light 10h 48m
Length of Day
9h 51m
Full, 100% of the Moon is Illuminated
Jan 16
Full
Jan 24
Last Quarter
Jan 30
New
Feb 6
First Quarter
Feb 14
Full

Hourly Weather History & Observations

Time (EST) Temp. Windchill Dew Point Humidity Pressure Visibility Wind Dir Wind Speed Gust Speed Precip Events Conditions
12:15 AM 19.4 °F 5.0 °F 15.8 °F 86% 29.84 in 10.0 mi WNW 16.1 mph - N/A   Overcast
12:35 AM 19.4 °F 5.5 °F 14.0 °F 80% 29.85 in 10.0 mi WNW 15.0 mph 19.6 mph N/A   Scattered Clouds
12:55 AM 17.6 °F 3.2 °F 14.0 °F 86% 29.85 in 10.0 mi WNW 15.0 mph 18.4 mph N/A   Clear
1:15 AM 17.6 °F 3.7 °F 12.2 °F 79% 29.85 in 10.0 mi WNW 13.8 mph 20.7 mph N/A   Clear
1:35 AM 17.6 °F 3.7 °F 12.2 °F 79% 29.85 in 10.0 mi WNW 13.8 mph - N/A   Clear
1:55 AM 17.6 °F 4.3 °F 12.2 °F 79% 29.85 in 10.0 mi WNW 12.7 mph 18.4 mph N/A   Clear
2:15 AM 15.8 °F 2.7 °F 12.2 °F 86% 29.85 in 10.0 mi West 11.5 mph - N/A   Clear
2:35 AM 15.8 °F 3.4 °F 12.2 °F 86% 29.84 in 10.0 mi West 10.4 mph - N/A   Clear
2:55 AM 15.8 °F 2.1 °F 12.2 °F 86% 29.84 in 10.0 mi West 12.7 mph - N/A   Clear
3:15 AM 15.8 °F 2.7 °F 12.2 °F 86% 29.84 in 10.0 mi West 11.5 mph - N/A   Clear
3:35 AM 15.8 °F 2.1 °F 12.2 °F 86% 29.83 in 10.0 mi West 12.7 mph - N/A   Clear
3:55 AM 14.0 °F -2.0 °F 12.2 °F 93% 29.83 in 10.0 mi West 16.1 mph - N/A   Clear
4:15 AM 14.0 °F -0.8 °F 12.2 °F 93% 29.83 in 10.0 mi West 13.8 mph - N/A   Clear
4:35 AM 14.0 °F -0.2 °F 10.4 °F 86% 29.83 in 10.0 mi West 12.7 mph - N/A   Clear
4:55 AM 14.0 °F -1.4 °F 10.4 °F 86% 29.83 in 10.0 mi West 15.0 mph - N/A   Clear
5:15 AM 12.2 °F -4.3 °F 10.4 °F 92% 29.84 in 10.0 mi West 16.1 mph - N/A   Clear
5:35 AM 12.2 °F -4.8 °F 10.4 °F 92% 29.84 in 10.0 mi West 17.3 mph - N/A   Clear
5:55 AM 12.2 °F -4.8 °F 10.4 °F 92% 29.83 in 10.0 mi WNW 17.3 mph 21.9 mph N/A   Clear
6:15 AM 12.2 °F -4.8 °F 10.4 °F 92% 29.84 in 10.0 mi WNW 17.3 mph - N/A   Clear
6:35 AM 12.2 °F -5.3 °F 10.4 °F 92% 29.84 in 10.0 mi WNW 18.4 mph - N/A   Clear
6:55 AM 12.2 °F -4.8 °F 10.4 °F 92% 29.84 in 10.0 mi West 17.3 mph - N/A   Unknown
7:15 AM 12.2 °F -3.7 °F 10.4 °F 92% 29.84 in 10.0 mi West 15.0 mph - N/A   Clear
7:35 AM 12.2 °F -2.5 °F 10.4 °F 92% 29.84 in 10.0 mi West 12.7 mph - N/A   Clear
7:55 AM 12.2 °F -3.7 °F 10.4 °F 92% 29.85 in 10.0 mi West 15.0 mph - N/A   Clear
8:15 AM 12.2 °F -4.8 °F 10.4 °F 92% 29.85 in 10.0 mi West 17.3 mph - N/A   Clear
8:35 AM 12.2 °F -4.8 °F 10.4 °F 92% 29.86 in 10.0 mi West 17.3 mph - N/A   Clear
8:55 AM 12.2 °F -4.8 °F 10.4 °F 92% 29.87 in 10.0 mi West 17.3 mph - N/A   Clear
9:15 AM 12.2 °F -4.3 °F 10.4 °F 92% 29.88 in 10.0 mi West 16.1 mph - N/A   Clear
9:35 AM 14.0 °F -0.8 °F 10.4 °F 86% 29.87 in 10.0 mi West 13.8 mph - N/A   Clear
9:55 AM 15.8 °F 3.4 °F 10.4 °F 79% 29.87 in 10.0 mi West 10.4 mph - N/A   Clear
10:15 AM 15.8 °F 2.7 °F 10.4 °F 79% 29.87 in 10.0 mi West 11.5 mph - N/A   Clear
10:35 AM 15.8 °F 2.7 °F 12.2 °F 86% 29.87 in 10.0 mi West 11.5 mph - N/A   Clear
10:55 AM 17.6 °F 8.2 °F 12.2 °F 79% 29.86 in 10.0 mi West 6.9 mph - N/A   Clear
11:15 AM 17.6 °F 6.4 °F 12.2 °F 79% 29.85 in 10.0 mi West 9.2 mph - N/A   Clear
11:35 AM 19.4 °F 9.5 °F 12.2 °F 74% 29.84 in 10.0 mi West 8.1 mph - N/A   Clear
11:55 AM 19.4 °F 11.5 °F 12.2 °F 74% 29.83 in 10.0 mi WSW 5.8 mph - N/A   Clear
12:15 PM 21.2 °F 12.6 °F 10.4 °F 63% 29.82 in 10.0 mi West 6.9 mph - N/A   Clear
12:35 PM 21.2 °F 13.6 °F 10.4 °F 63% 29.81 in 10.0 mi West 5.8 mph - N/A   Clear
12:55 PM 21.2 °F 12.6 °F 12.2 °F 68% 29.81 in 10.0 mi WSW 6.9 mph - N/A   Clear
1:15 PM 21.2 °F 14.9 °F 12.2 °F 68% 29.81 in 10.0 mi WSW 4.6 mph - N/A   Clear
1:35 PM 23.0 °F 17.0 °F 12.2 °F 63% 29.81 in 10.0 mi West 4.6 mph - N/A   Clear
1:55 PM 23.0 °F 18.4 °F 12.2 °F 63% 29.80 in 10.0 mi WSW 3.5 mph - N/A Snow Light Snow
2:15 PM 24.8 °F 17.9 °F 12.2 °F 59% 29.79 in 10.0 mi SSW 5.8 mph - N/A   Clear
2:35 PM 24.8 °F 19.1 °F 10.4 °F 54% 29.78 in 10.0 mi West 4.6 mph - N/A   Clear
2:55 PM 26.6 °F 20.0 °F 12.2 °F 55% 29.78 in 10.0 mi WSW 5.8 mph - N/A   Clear
3:55 PM 24.8 °F 15.3 °F 12.2 °F 59% 29.79 in 10.0 mi WSW 9.2 mph - N/A   Clear
4:15 PM 24.8 °F 14.6 °F 12.2 °F 59% 29.80 in 10.0 mi West 10.4 mph - N/A   Clear
4:35 PM 24.8 °F 14.6 °F 12.2 °F 59% 29.80 in 10.0 mi West 10.4 mph - N/A   Clear
4:55 PM 24.8 °F 16.1 °F 12.2 °F 59% 29.80 in 10.0 mi WSW 8.1 mph - N/A   Clear
5:15 PM 23.0 °F 13.1 °F 12.2 °F 63% 29.81 in 10.0 mi WSW 9.2 mph - N/A   Clear
5:35 PM 23.0 °F 13.9 °F 12.2 °F 63% 29.80 in 10.0 mi WSW 8.1 mph - N/A   Clear
5:55 PM 21.2 °F 10.9 °F 12.2 °F 68% 29.81 in 10.0 mi WSW 9.2 mph - N/A   Clear
6:15 PM 21.2 °F 12.6 °F 12.2 °F 68% 29.82 in 10.0 mi SW 6.9 mph - N/A   Mostly Cloudy
6:35 PM 23.0 °F 15.8 °F 12.2 °F 63% 29.82 in 10.0 mi South 5.8 mph - N/A   Scattered Clouds
6:55 PM 24.8 °F 16.9 °F 12.2 °F 59% 29.83 in 10.0 mi South 6.9 mph - N/A   Mostly Cloudy
7:15 PM 24.8 °F 16.1 °F 12.2 °F 59% 29.83 in 10.0 mi South 8.1 mph - N/A   Overcast
7:35 PM 24.8 °F 16.1 °F 12.2 °F 59% 29.83 in 10.0 mi South 8.1 mph - N/A   Overcast
7:55 PM 24.8 °F 16.1 °F 12.2 °F 59% 29.84 in 10.0 mi SSW 8.1 mph - N/A   Overcast
8:15 PM 26.6 °F 18.2 °F 12.2 °F 55% 29.84 in 10.0 mi SSW 8.1 mph - N/A   Overcast
8:35 PM 24.8 °F 16.1 °F 12.2 °F 59% 29.83 in 10.0 mi South 8.1 mph - N/A   Overcast
8:55 PM 24.8 °F 16.1 °F 12.2 °F 59% 29.84 in 10.0 mi South 8.1 mph - N/A   Overcast
9:15 PM 24.8 °F 15.3 °F 12.2 °F 59% 29.84 in 10.0 mi South 9.2 mph - N/A   Overcast
9:35 PM 24.8 °F 16.1 °F 12.2 °F 59% 29.84 in 10.0 mi SSW 8.1 mph - N/A   Overcast
9:55 PM 24.8 °F 15.3 °F 12.2 °F 59% 29.84 in 10.0 mi SSW 9.2 mph - N/A   Overcast
10:35 PM 26.6 °F 16.2 °F 15.8 °F 64% 29.85 in 10.0 mi SW 11.5 mph 18.4 mph N/A   Overcast
10:55 PM 26.6 °F 15.2 °F 15.8 °F 64% 29.85 in 10.0 mi SW 13.8 mph - N/A   Overcast
11:15 PM 26.6 °F 13.4 °F 15.8 °F 64% 29.84 in 10.0 mi SW 18.4 mph 23.0 mph N/A   Overcast
11:35 PM 26.6 °F 13.8 °F 17.6 °F 69% 29.84 in 10.0 mi WSW 17.3 mph - N/A   Overcast
11:55 PM 26.6 °F 13.8 °F 15.8 °F 64% 29.84 in 10.0 mi WSW 17.3 mph - N/A   Overcast